Tracking 17857 objects as of 1-October-2016
HD Live streaming from Space Station
objects crossing your sky now

COSMOS 2318 (GLONASS)

Track COSMOS 2318 (GLONASS) now!
COSMOS 2318 (GLONASS) is classified as:


NORAD ID: 23622
Int'l Code: 1995-037C
Perigee: 19,081.4 km
Apogee: 19,193.0 km
Inclination: 66.4 °
Period: 675.7 minutes
Semi major axis: 25508 km
RCS: 3.5243 m2 (large)
Launch date: July 24, 1995
Source: Commonwealth of Independent States (former USSR) (CIS)
Launch site: TYURATAM MISSILE AND SPACE COMPLEX (TTMTR)
SV:
Your satellite tracking list
Your tracking list is empty





NASA's NSSDC Master Catalog

Two Line Element Set (TLE):
1 23622U 95037C   16274.43924223 -.00000017  00000-0  00000+0 0  9996
2 23622  66.4460 318.7231 0021867 111.3711 332.3982  2.13101335164917
Source of the keplerian elements: AFSPC

N2YO: 685